| time (UTC) | temp F | wind direction | speed MPH | gust MPH | rain 1hr in | rain 24hr in | rain mn in | humidity % | barometer mb |
| 20260503171538 | 73 | 94 | 0.0 | 3.0 | 0.00 | 0.00 | 0.00 | 49 | 1014.0 |
| 20260503081529 | 55 | 75 | 1.0 | 1.0 | 0.00 | 0.00 | 0.00 | 74 | 1015.7 |
| 20260503071518 | 57 | 88 | 0.0 | 0.0 | 0.00 | 0.00 | 0.00 | 71 | 1015.5 |
| 20260503054508 | 60 | 99 | 0.0 | 1.0 | 0.00 | 0.00 | 0.00 | 68 | 1015.0 |
| 20260503053004 | 61 | 99 | 0.0 | 1.0 | 0.00 | 0.00 | 0.00 | 69 | 1014.7 |
| 20260503051600 | 61 | 99 | 0.0 | 2.0 | 0.00 | 0.00 | 0.00 | 69 | 1014.7 |
| 20260503044609 | 60 | 225 | 0.0 | 1.0 | 0.00 | 0.00 | 0.00 | 77 | 1014.4 |
| 20260503043105 | 60 | 229 | 0.0 | 1.0 | 0.00 | 0.00 | 0.00 | 78 | 1014.1 |
| 20260503041556 | 59 | 229 | 0.0 | 1.0 | 0.00 | 0.00 | 0.00 | 80 | 1014.1 |
| 20260503040055 | 60 | 229 | 0.0 | 0.0 | 0.00 | 0.00 | 0.00 | 79 | 1013.8 |
| 20260503034551 | 60 | 229 | 0.0 | 1.0 | 0.00 | 0.00 | 0.00 | 78 | 1013.6 |
| 20260503033103 | 60 | 229 | 0.0 | 0.0 | 0.00 | 0.00 | 0.00 | 78 | 1013.3 |
| 20260503031547 | 60 | 229 | 0.0 | 0.0 | 0.00 | 0.00 | 0.00 | 76 | 1013.0 |
| 20260503030046 | 62 | 229 | 0.0 | 1.0 | 0.00 | 0.00 | 0.00 | 74 | 1012.9 |
| 20260503024543 | 62 | 229 | 0.0 | 0.0 | 0.00 | 0.00 | 0.00 | 72 | 1012.6 |
| 20260503023052 | 63 | 229 | 0.0 | 1.0 | 0.00 | 0.00 | 0.00 | 70 | 1012.5 |
| 20260503021541 | 65 | 235 | 0.0 | 2.0 | 0.00 | 0.00 | 0.00 | 65 | 1012.5 |
| 20260503020038 | 66 | 238 | 0.0 | 2.0 | 0.00 | 0.00 | 0.00 | 63 | 1012.6 |
| 20260503014535 | 67 | 222 | 3.0 | 5.0 | 0.00 | 0.00 | 0.00 | 61 | 1012.8 |
| 20260503013033 | 68 | 234 | 1.0 | 5.0 | 0.00 | 0.00 | 0.00 | 60 | 1012.8 |
| 20260503011533 | 69 | 78 | 1.0 | 6.0 | 0.00 | 0.00 | 0.00 | 58 | 1012.8 |
| 20260503010032 | 70 | 104 | 1.0 | 7.0 | 0.00 | 0.00 | 0.00 | 56 | 1012.9 |
| 20260503004525 | 70 | 222 | 1.0 | 4.0 | 0.00 | 0.00 | 0.00 | 56 | 1012.9 |
| 20260503003023 | 72 | 359 | 2.0 | 4.0 | 0.00 | 0.00 | 0.00 | 55 | 1012.9 |
| 20260503001521 | 72 | 205 | 2.0 | 11.0 | 0.00 | 0.00 | 0.00 | 52 | 1013.0 |
| 20260503000023 | 72 | 250 | 1.0 | 7.0 | 0.00 | 0.00 | 0.00 | 53 | 1013.1 |
| 20260502234515 | 73 | 232 | 2.0 | 7.0 | 0.00 | 0.00 | 0.00 | 51 | 1013.2 |
| 20260502233012 | 72 | 227 | 3.0 | 8.0 | 0.00 | 0.00 | 0.00 | 52 | 1013.3 |
| 20260502231511 | 71 | 51 | 2.0 | 7.0 | 0.00 | 0.00 | 0.00 | 56 | 1013.5 |
| 20260502230006 | 71 | 80 | 1.0 | 9.0 | 0.00 | 0.00 | 0.00 | 56 | 1013.8 |
| 20260502224603 | 72 | 47 | 3.0 | 9.0 | 0.00 | 0.00 | 0.00 | 53 | 1013.7 |
| 20260502223100 | 73 | 249 | 6.0 | 15.0 | 0.00 | 0.00 | 0.00 | 50 | 1014.0 |
| 20260502221556 | 72 | 222 | 7.0 | 13.0 | 0.00 | 0.00 | 0.00 | 51 | 1014.1 |
| 20260502220054 | 71 | 121 | 5.0 | 14.0 | 0.00 | 0.00 | 0.00 | 52 | 1014.2 |
| 20260502214552 | 71 | 262 | 6.0 | 15.0 | 0.00 | 0.00 | 0.00 | 53 | 1014.5 |
| 20260502213047 | 71 | 179 | 3.0 | 11.0 | 0.00 | 0.00 | 0.00 | 54 | 1014.7 |
| 20260502211552 | 69 | 201 | 2.0 | 10.0 | 0.00 | 0.00 | 0.00 | 57 | 1015.0 |
| 20260502210040 | 70 | 229 | 3.0 | 11.0 | 0.00 | 0.00 | 0.00 | 55 | 1015.1 |
| 20260502204538 | 72 | 241 | 2.0 | 12.0 | 0.00 | 0.00 | 0.00 | 52 | 1015.1 |
| 20260502203035 | 71 | 234 | 3.0 | 8.0 | 0.00 | 0.00 | 0.00 | 53 | 1015.3 |
| 20260502201632 | 71 | 261 | 3.0 | 8.0 | 0.00 | 0.00 | 0.00 | 53 | 1015.4 |
| 20260502200038 | 71 | 219 | 3.0 | 7.0 | 0.00 | 0.00 | 0.00 | 51 | 1015.7 |
| 20260502194525 | 75 | 231 | 4.0 | 9.0 | 0.00 | 0.00 | 0.00 | 46 | 1015.8 |
| 20260502193022 | 81 | 208 | 4.0 | 7.0 | 0.00 | 0.00 | 0.00 | 35 | 1016.0 |
| 20260502191521 | 83 | 306 | 0.0 | 2.0 | 0.00 | 0.00 | 0.00 | 33 | 1016.2 |
| 20260502190012 | 82 | 140 | 0.0 | 1.0 | 0.00 | 0.00 | 0.00 | 37 | 1016.3 |
| 20260502184515 | 82 | 77 | 0.0 | 3.0 | 0.00 | 0.00 | 0.00 | 37 | 1016.2 |
| 20260502183003 | 80 | 115 | 1.0 | 3.0 | 0.00 | 0.00 | 0.00 | 33 | 1016.3 |
| 20260502181558 | 79 | 87 | 0.0 | 3.0 | 0.00 | 0.00 | 0.00 | 40 | 1016.4 |